www.pogodaiklimat.ru

Погода и климат >> Архив погоды >> Бразилия >> Мату-Гросу-ду-Сул >> Жути


ПОГОДА в Жути

  • Прогноз погоды в Жути
  • Монитор погоды в Жути

АРХИВ ПОГОДЫ в Жути

Время (UTC), дата Ветер
(напр.,м/с)
 
Видим.   Явления Облачность Т
(С)
Тd
(С)
f
(%)
Тe
(С)
Тes
(С)
Комфортность P
(гПа)
Po
(гПа)
Тmin
(С)
Tmax
(С)
R
(мм)
R24
(мм)
S
(см)
19 11.09 ЮВ 2
{6}
н/о н/о +37.1 +7.6 17 +35 +35 очень
жарко
1005.8 965.1
20 11.09 ЮВ 3
{5}
н/о н/о +36.2 +7.1 17 +34 +34 очень
жарко
1006.2 965.3
21 11.09 Ю 1
{5}
н/о н/о +34.0 +8.6 21 +33 +33 жарко 1006.8 965.6
22 11.09 штиль 0
{3}
н/о н/о +31.1 +9.5 26 +30 +30 жарко 1007.5 965.9
23 11.09 Ю 1
{2}
н/о н/о +30.4 +9.8 28 +30 +30 жарко 1008.1 966.4
00 12.09 ЮВ 1
{3}
н/о н/о +27.7 +12.3 38 +29 +29 жарко 1009.7 967.6
01 12.09 В 1
{2}
н/о н/о +27.6 +16.7 51 +31 +31 душно 1010.7 968.5
02 12.09 СВ 1
{3}
н/о н/о +25.6 +17.6 61 +30 +30 душно 1011.3 968.8
03 12.09 В 1
{2}
н/о н/о +23.9 +18.0 70 +28 +28 душно 1012.0 969.2
04 12.09 В 2
{3}
н/о н/о +23.2 +18.4 74 +29 +29 душно 1011.7 968.9
05 12.09 СВ 1
{3}
н/о н/о +21.7 +18.3 81 +26 +26 душно 1012.3 969.2
06 12.09 СВ 1
{3}
н/о н/о +20.5 +17.9 85 +25 +25 комфорт 1013.1 969.8
07 12.09 СВ 1
{3}
н/о н/о +19.6 +17.4 87 +23 +23 комфорт 1013.0 969.6
08 12.09 СВ 1
{2}
н/о н/о +18.9 +17.0 89 +22 +22 комфорт 1013.5 970.0
09 12.09 СВ 1
{3}
н/о н/о +18.1 +16.5 90 +19 +19 1014.0 970.3
10 12.09 В 2
{3}
н/о н/о +17.5 +16.4 93 +18 +18 1015.2 971.4
11 12.09 В 2
{4}
н/о н/о +18.5 +16.6 89 +20 +20 1016.1 972.4
12 12.09 В 3
{5}
н/о н/о +18.8 +16.2 85 +20 +20 1016.9 973.2
13 12.09 В 2
{5}
н/о н/о +18.5 +16.0 85 +20 +20 1017.6 973.8
14 12.09 СВ 2
{4}
н/о н/о +19.6 +16.4 82 +23 +23 комфорт 1017.6 974.0
15 12.09 В 2
{4}
н/о н/о +20.1 +15.9 77 +23 +23 комфорт 1017.9 974.3
16 12.09 В 2
{4}
н/о н/о +21.5 +16.1 71 +25 +25 комфорт 1017.1 973.8
17 12.09 В 2
{5}
н/о н/о +21.4 +15.6 70 +25 +25 комфорт 1017.1 973.8
18 12.09 В 2
{4}
н/о н/о +21.8 +15.3 67 +25 +25 комфорт 1016.4 973.2
19 12.09 В 2
{4}
н/о н/о +20.7 +14.8 69 +24 +24 комфорт 1016.5 973.1
20 12.09 СВ 2
{4}
н/о н/о +19.9 +14.6 72 +23 +23 комфорт 1017.0 973.5
21 12.09 В 2
{4}
н/о н/о +18.1 +14.7 81 +19 +19 1018.1 974.2
22 12.09 СВ 1
{5}
н/о н/о +17.2 +14.3 83 +18 +18 1018.6 974.6
23 12.09 СВ 1
{4}
н/о н/о +16.7 +14.1 85 +18 +18 1019.0 974.9
00 13.09 СВ 1
{4}
н/о н/о +16.7 +13.9 84 +18 +18 1019.8 975.7
01 13.09 СВ 1
{3}
н/о н/о +16.5 +13.9 85 +18 +18 1020.0 975.8
02 13.09 СВ 1
{3}
н/о н/о +15.9 +13.9 88 +17 +17 1020.0 975.7
03 13.09 СВ 1
{2}
н/о н/о +15.7 +14.0 90 +17 +17 1019.7 975.4
04 13.09 СВ 1
{2}
н/о н/о +15.3 +13.9 91 +16 +16 1018.9 974.6
05 13.09 В 1
{2}
н/о н/о +15.1 +14.1 94 +16 +16 1018.2 973.9
06 13.09 В 1
{2}
н/о н/о +14.9 +14.1 95 +16 +16 1017.9 973.6
07 13.09 штиль 0
{1}
н/о н/о +15.0 +14.2 95 +15 +15 1017.7 973.4
08 13.09 В 1
{1}
н/о н/о +15.1 +14.3 95 +16 +16 1018.0 973.7
09 13.09 СВ 1
{2}
н/о н/о +15.7 +14.5 93 +17 +17 1018.3 974.1
10 13.09 СВ 1
{2}
н/о н/о +15.8 +14.3 91 +17 +17 1018.6 974.4
11 13.09 СВ 1
{2}
н/о н/о +16.3 +14.5 89 +17 +17 1019.3 975.1
12 13.09 С 1
{3}
н/о н/о +17.5 +14.7 84 +19 +19 1019.2 975.2
13 13.09 С 1
{3}
н/о н/о +19.2 +14.7 75 +22 +22 комфорт 1019.1 975.4
14 13.09 С 1
{3}
н/о н/о +21.6 +15.2 67 +25 +25 комфорт 1018.4 975.0
15 13.09 С 1
{3}
н/о н/о +24.5 +15.3 57 +27 +27 жарко 1017.1 974.2
16 13.09 С 1
{3}
н/о н/о +26.2 +14.8 49 +29 +29 жарко 1016.0 973.4
17 13.09 Ю 1
{3}
н/о н/о +28.0 +14.6 44 +30 +30 жарко 1014.8 972.5
18 13.09 ЮВ 1
{2}
н/о н/о +29.5 +15.0 41 +32 +32 душно 1013.7 971.6
19 13.09 С 1
{2}
н/о н/о +29.7 +14.6 40 +32 +32 душно 1013.0 971.0
20 13.09
{3}
н/о н/о +30.2 +14.4 38 1012.6 970.7
21 13.09 СЗ 1
{2}
н/о н/о +29.3 +15.1 42 +32 +32 душно 1012.6 970.6
22 13.09 штиль 0
{1}
н/о н/о +26.8 +16.0 52 +30 +30 душно 1013.4 971.0
23 13.09
{2}
н/о н/о +25.5 +15.4 54 1014.0 971.4
00 14.09 С 1
{2}
н/о н/о +24.3 +15.2 57 +27 +27 жарко 1014.7 971.9
01 14.09 С 1
{2}
н/о н/о +23.2 +15.3 61 +27 +27 душно 1015.3 972.3
02 14.09 штиль 0
{2}
н/о н/о +22.0 +15.4 66 +26 +26 душно 1015.7 972.5
03 14.09 штиль 0
{1}
н/о н/о +21.3 +15.4 69 +24 +24 комфорт 1015.7 972.4
04 14.09 штиль 0
{1}
н/о н/о +20.4 +15.2 72 +23 +23 комфорт 1015.3 971.9
05 14.09 штиль 0 н/о н/о +18.9 +15.5 81 +20 +20 1014.8 971.2
06 14.09 СЗ 1
{2}
н/о н/о +19.2 +15.2 78 +22 +22 комфорт 1014.4 970.9
07 14.09 СЗ 1
{2}
н/о н/о +19.3 +15.1 77 +22 +22 комфорт 1014.0 970.5
08 14.09 штиль 0
{1}
н/о н/о +18.0 +15.2 84 +18 +18 1014.2 970.5
09 14.09 штиль 0 н/о н/о +17.7 +15.1 85 +18 +18 1014.6 970.8
10 14.09 З 1
{2}
н/о н/о +19.7 +15.9 79 +23 +23 комфорт 1015.1 971.6
11 14.09 З 2
{3}
н/о н/о +21.3 +16.5 74 +25 +25 комфорт 1015.5 972.2
12 14.09 З 2
{4}
н/о н/о +24.0 +17.1 65 +28 +28 душно 1015.6 972.7
13 14.09 З 2
{4}
н/о н/о +26.4 +16.9 56 +30 +30 душно 1015.0 972.5
14 14.09 ЮЗ 2
{4}
н/о н/о +28.2 +16.8 50 +32 +32 душно 1014.5 972.2
15 14.09 ЮЗ 2
{4}
н/о н/о +31.0 +16.7 42 +34 +34 душно 1013.1 971.3
16 14.09 ЮЗ 2
{4}
н/о н/о +32.6 +16.2 37 +35 +35 душно 1011.9 970.3
17 14.09 ЮЗ 2
{3}
н/о н/о +33.5 +15.1 33 +35 +35 душно 1010.4 969.0
18 14.09 З 2
{3}
н/о н/о +34.9 +14.8 30 +36 +36 душно 1009.1 968.0
19 14.09 З 1
{4}
н/о н/о +34.6 +14.3 30 +36 +36 душно 1008.7 967.5
20 14.09 З 2
{3}
н/о н/о +34.4 +13.0 27 +35 +35 очень
жарко
1008.5 967.3
21 14.09 СЗ 1
{3}
н/о н/о +33.1 +14.2 32 +34 +34 очень
жарко
1008.8 967.4
22 14.09 СЗ 1
{2}
н/о н/о +30.6 +14.4 37 +32 +32 жарко 1009.2 967.5
23 14.09 З 2
{3}
н/о н/о +29.6 +15.0 41 +32 +32 душно 1009.8 967.9
00 15.09 З 2
{3}
н/о н/о +28.3 +15.4 45 +31 +31 душно 1010.3 968.2
01 15.09 З 2
{3}
н/о н/о +26.6 +15.8 52 +30 +30 душно 1010.6 968.3
02 15.09 З 2
{3}
н/о н/о +27.2 +15.2 48 +30 +30 душно 1010.2 968.0
04 15.09 штиль 0
{1}
н/о н/о +24.0 +15.3 58 +27 +27 жарко 1010.3 967.6
05 15.09 штиль 0
{1}
н/о н/о +22.8 +15.6 64 +27 +27 душно 1010.1 967.3
06 15.09 штиль 0
{1}
н/о н/о +22.2 +15.7 67 +26 +26 душно 1010.1 967.2
07 15.09 штиль 0 н/о н/о +21.9 +15.7 68 +26 +26 душно 1010.1 967.1
08 15.09 штиль 0 н/о н/о +21.8 +15.7 68 +25 +25 комфорт 1010.7 967.7
09 15.09 З 1
{2}
н/о н/о +22.5 +15.9 66 +27 +27 душно 1010.9 968.0
10 15.09 СЗ 1
{2}
н/о н/о +21.7 +16.0 70 +25 +25 комфорт 1011.7 968.6
11 15.09 СЗ 1
{3}
н/о н/о +22.5 +16.6 69 +27 +27 душно 1012.7 969.7
12 15.09 З 2
{3}
н/о н/о +27.1 +17.0 54 +31 +31 душно 1012.1 969.8
13 15.09 З 2
{4}
н/о н/о +30.3 +16.5 43 +34 +34 очень
душно
1011.7 969.8
15 15.09 ЮЗ 2
{4}
н/о н/о +35.2 +14.2 28 +36 +36 очень
жарко
1009.6 968.5
16 15.09 ЮЗ 2
{4}
н/о н/о +37.3 +12.8 23 +37 +37 очень
жарко
1008.2 967.4
17 15.09 ЮЗ 2
{5}
н/о н/о +37.7 +11.6 21 +37 +37 очень
жарко
1007.1 966.4
19 15.09 ЮЗ 2
{5}
н/о н/о +38.4 +10.1 18 +37 +37 очень
жарко
1005.2 964.7
20 15.09 ЮЗ 2
{5}
н/о н/о +38.1 +9.7 18 +37 +37 очень
жарко
1005.1 964.5
21 15.09 З 1
{4}
н/о н/о +36.6 +9.9 20 +35 +35 очень
жарко
1005.1 964.3
22 15.09 З 1
{3}
н/о н/о +34.0 +9.6 22 +33 +33 жарко 1005.7 964.6
23 15.09 З 1
{2}
н/о н/о +31.7 +9.8 26 +31 +31 жарко 1006.7 965.2
00 16.09 З 1
{2}
н/о н/о +29.6 +10.2 30 +30 +30 жарко 1007.7 965.9
02 16.09 З 1
{3}
н/о н/о +30.2 +9.2 27 +30 +30 жарко 1008.2 966.5
03 16.09 ЮЗ 1
{3}
н/о н/о +27.7 +9.5 32 +28 +28 жарко 1008.8 966.7
04 16.09 ЮЗ 1
{2}
н/о н/о +28.1 +9.3 31 +28 +28 жарко 1008.9 966.9
05 16.09 ЮЗ 1
{2}
н/о н/о +27.0 +9.6 34 +27 +27 жарко 1009.0 966.8
06 16.09 ЮЗ 1
{3}
н/о н/о +27.1 +9.2 32 +27 +27 жарко 1008.4 966.2
07 16.09 ЮЗ 1
{2}
н/о н/о +26.8 +9.8 34 +27 +27 жарко 1008.5 966.3
08 16.09 ЮЗ 1
{3}
н/о н/о +25.6 +10.2 38 +26 +26 жарко 1009.3 966.9
09 16.09 ЮЗ 2
{4}
н/о н/о +28.5 +8.4 28 +28 +28 жарко 1009.2 967.2
10 16.09 ЮЗ 2
{4}
н/о н/о +28.0 +7.9 28 +28 +28 жарко 1010.3 968.2
11 16.09 ЮЗ 2
{4}
н/о н/о +29.5 +8.3 27 +29 +29 жарко 1010.7 968.8
12 16.09 ЮЗ 2
{5}
н/о н/о +32.3 +7.9 22 +31 +31 жарко 1010.5 969.0
13 16.09 ЮЗ 3
{6}
н/о н/о +34.3 +8.0 20 +33 +33 жарко 1010.5 969.2
14 16.09 ЮЗ 2
{7}
н/о н/о +35.0 +8.3 19 +33 +33 жарко 1010.3 969.1
15 16.09 ЮЗ 3
{6}
н/о н/о +37.3 +8.7 18 +36 +36 очень
жарко
1009.7 968.8
16 16.09 Ю 3
{6}
н/о н/о +38.4 +7.0 15 +36 +36 очень
жарко
1008.6 967.9
17 16.09 ЮЗ 2
{5}
н/о н/о +39.3 +6.4 13 +37 +37 очень
жарко
1007.5 967.0
18 16.09 Ю 2
{5}
н/о н/о +38.7 +6.1 14 +36 +36 очень
жарко
1006.6 966.0
19 16.09 ЮЗ 1
{5}
н/о н/о +39.3 +6.5 14 +37 +37 очень
жарко
1005.8 965.4
21 16.09 штиль 0
{2}
н/о н/о +36.5 +8.4 18 +35 +35 очень
жарко
1006.8 966.0
22 16.09 З 1
{2}
н/о н/о +34.2 +7.6 19 +32 +32 жарко 1007.6 966.4
23 16.09 ЮЗ 1
{2}
н/о н/о +32.6 +8.3 22 +31 +31 жарко 1008.1 966.7
00 17.09 З 2
{3}
н/о н/о +31.1 +8.4 24 +30 +30 жарко 1008.7 967.1
01 17.09 З 1
{3}
н/о н/о +29.5 +9.0 28 +29 +29 жарко 1009.5 967.6
02 17.09 ЮЗ 1
{3}
н/о н/о +26.8 +9.6 34 +27 +27 жарко 1010.2 967.9
03 17.09 ЮЗ 2
{3}
н/о н/о +30.1 +7.8 25 +29 +29 жарко 1009.4 967.6
04 17.09 ЮЗ 2
{4}
н/о н/о +30.8 +6.3 21 +29 +29 жарко 1008.8 967.1
05 17.09 ЮЗ 2
{4}
н/о н/о +29.4 +5.8 22 +28 +28 жарко 1008.3 966.5
06 17.09 ЮЗ 2
{3}
н/о н/о +27.9 +6.3 25 +27 +27 жарко 1008.1 966.1
07 17.09 ЮЗ 1
{3}
н/о н/о +27.1 +6.8 28 +27 +27 жарко 1007.6 965.5
08 17.09 ЮВ 2
{5}
н/о н/о +26.2 +7.0 29 +26 +26 жарко 1008.5 966.2
09 17.09 штиль 0
{5}
н/о н/о +23.9 +11.0 44 +25 +25 комфорт 1009.3 966.7
10 17.09 штиль 0
{2}
н/о н/о +24.5 +11.7 45 +26 +26 жарко 1010.0 967.4
11 17.09 В 2
{3}
н/о н/о +24.1 +13.0 50 +26 +26 жарко 1010.8 968.1
12 17.09 В 2
{3}
н/о н/о +25.0 +17.0 61 +29 +29 душно 1010.9 968.3
13 17.09 ЮВ 1
{3}
н/о н/о +26.6 +19.3 64 +32 +32 очень
душно
1010.3 968.0
14 17.09 В 1
{3}
н/о н/о +29.0 +19.7 57 +35 +35 очень
душно
1009.7 967.7
15 17.09 ЮВ 1
{3}
н/о н/о +32.0 +19.4 47 +38 +38 очень
душно
1008.2 966.7
16 17.09 ЮВ 1
{3}
н/о н/о +34.0 +17.4 37 +37 +37 очень
душно
1006.9 965.7
17 17.09 ЮВ 1
{3}
н/о н/о +34.7 +17.2 35 +38 +38 очень
душно
1005.4 964.4
18 17.09 В 2
{4}
н/о н/о +33.2 +18.5 42 +38 +38 очень
душно
1005.0 963.8
19 17.09 В 2
{4}
н/о н/о +31.9 +18.5 45 +37 +37 очень
душно
1004.9 963.5
20 17.09 В 2
{4}
н/о н/о +30.9 +18.5 48 +36 +36 очень
душно
1005.1 963.6
21 17.09 В 2
{3}
н/о н/о +29.0 +18.9 54 +34 +34 очень
душно
1005.4 963.6
22 17.09 В 2
{3}
н/о н/о +26.5 +18.5 61 +31 +31 душно 1006.4 964.2
23 17.09 СВ 1
{3}
н/о н/о +24.2 +18.2 69 +29 +29 душно 1007.0 964.5
00 18.09 СВ 1
{2}
н/о н/о +22.3 +17.8 76 +27 +27 душно 1008.0 965.2
01 18.09 СВ 1
{3}
н/о н/о +21.4 +17.5 78 +25 +25 комфорт 1008.4 965.4
02 18.09 СВ 1
{3}
н/о н/о +20.4 +17.2 82 +25 +25 комфорт 1008.8 965.7
03 18.09 СВ 1
{3}
н/о н/о +19.6 +17.1 85 +23 +23 комфорт 1008.8 965.6
04 18.09 штиль 0
{1}
н/о н/о +19.0 +17.0 88 +20 +20 1008.5 965.2
05 18.09 С 1
{2}
н/о н/о +18.5 +16.8 90 +21 +21 комфорт 1008.5 965.1
06 18.09 С 1
{2}
н/о н/о +18.0 +16.5 91 +20 +20 1007.8 964.4
07 18.09 СВ 1
{3}
н/о н/о +17.7 +16.4 92 +19 +19 1008.3 964.8
08 18.09 В 1
{3}
н/о н/о +17.5 +16.4 93 +19 +19 1008.7 965.2
09 18.09 СВ 1
{3}
н/о н/о +17.4 +16.3 93 +18 +18 1009.3 965.7
10 18.09 СВ 1
{3}
н/о н/о +17.7 +16.5 93 +19 +19 1009.9 966.3
11 18.09 СВ 1
{3}
н/о н/о +18.3 +16.4 89 +20 +20 1010.9 967.4
12 18.09 СВ 1
{3}
н/о н/о +19.9 +16.8 82 +24 +24 комфорт 1011.2 967.9
13 18.09 СВ 1
{2}
н/о н/о +21.8 +16.3 71 +26 +26 душно 1010.8 967.8
14 18.09 В 1
{2}
н/о н/о +22.9 +15.7 64 +27 +27 душно 1010.4 967.6
15 18.09 В 1
{2}
н/о н/о +24.5 +15.5 57 +27 +27 жарко 1009.8 967.2
16 18.09 СВ 1
{3}
н/о н/о +26.2 +15.6 52 +29 +29 жарко 1008.7 966.4
18 18.09 В 1
{3}
н/о н/о +26.0 +14.9 50 +29 +29 душно 1007.1 964.8
19 18.09 СВ 1
{3}
н/о н/о +25.5 +15.2 53 +28 +28 жарко 1006.8 964.5

 

Местоположение метеостанции Жути (Мату-Гросу-ду-Сул, Бразилия): широта -22.85 долгота -54.60 высота над уровнем моря 381 м.

В архиве по умолчанию представлена погода в Жути за последнюю неделю. Архивные данные за месяц целиком и за предыдущие месяцы, начиная с января 2011 года, Вы можете получить, выбрав интересующий диапазон дат из раскрывающегося списка и нажав кнопку "Ввод!".


*Определитесь, кто Вы:
робот инопланетянин человек

Внимание! Время в таблицах - всемирное. Для получения местного времени необходимо прибавить поправку, которая равна -3 ч.

Смотрите также архив погоды в соседних городах и на ближайших метеорологических станциях:

Погода в Амамбаи (Мату-Гросу-ду-Сул, Бразилия) (77 км)
Погода в Итакираи (Мату-Гросу-ду-Сул, Бразилия) (79 км)
Погода в Дорадусе (Мату-Гросу-ду-Сул, Бразилия) (79 км)
Погода в Ивиньеме (Мату-Гросу-ду-Сул, Бразилия) (91 км)
Погода в Ивиньеме (Мату-Гросу-ду-Сул, Бразилия) (101 км)
Погода в Понта-Поране (Мату-Гросу-ду-Сул, Бразилия) (102 км)
Погода в Икараиме (Парана, Бразилия) (113 км)
Погода в Понта-Пора (Мату-Гросу-ду-Сул, Бразилия) (118 км)
Погода в Рио-Брилханте (Мату-Гросу-ду-Сул, Бразилия) (119 км)
Погода в Педро-Хуан-Кабальеро (Парагвай) (120 км)

Пояснения к столбцам:

Ветер - указаны скорость ветра в м/с - средняя за 10 мин, порывы в срок и между сроками (в фигурных скобках) и направление, откуда дует ветер: С - северный, СВ - северо-восточный, В - восточный, ЮВ - юго-восточный, Ю - южный, ЮЗ - юго-западный, З - западный, СЗ - северо-западный.
Видимость - горизонтальная дальность видимости в метрах или километрах. При видимости от 1 до 10 км при отсутствии осадков обычно наблюдается дымка, при ухудшении видимости до 1 км и менее - туман. В сухую погоду видимость может ухудшаться дымом, пылью или мглою.
Явления - указаны атмосферные явления, наблюдавшиеся в срок или в последний час перед сроком; фигурными скобками обозначены явления, наблюдавшиеся между сроками (за 1-3 часа до срока); квадратными скобками обозначены град или гололедные отложения с указанием их диаметра в мм.
Облачность - указаны через наклонную черту общая и нижняя облачность в баллах и высота нижней границы облаков в метрах; квадратными скобками обозначены формы облаков: Ci - перистые, Cs - перисто-слоистые, Cc - перисто-кучевые, Ac - высококучевые, As - высокослоистые, Sc - слоисто-кучевые, Ns - слоисто-дождевые, Cu - кучевые, Cb - кучево-дождевые. Подробнее классификацию облаков см. в Атласе облаков (PDF).
T - Температура воздуха - температура, измеренная на высоте 2 м над землей.
Td - Температура точки росы - температура, при понижении до которой содержащийся в воздухе водяной пар достигнет насыщения.
f - Относительная влажность воздуха - влажноcть воздуха, измеренная на высоте 2 м над землей.
Te - Эффективная температура - температура, которую ощущает одетый по сезону человек в тени. Характеристика душности погоды. При расчете учитывается влияние влажности воздуха и скорости ветра на теплоощущения человека.
Tes - Эффективная температура на солнце - температура, которую ощущает человек, с поправкой на солнечный нагрев. Характеристика знойности погоды. Зависит от высоты солнца над горизонтом, облачности и скорости ветра. Ночью, в пасмурную погоду, а также при ветре 12 м/с и более поправка равна нулю.
P - Атмосферное давление - приведенное к уровню моря атмосферное давление.
Po - Атмосферное давление - измеренное на уровне метеостанции атмосферное давление.
Tmin - Минимальная температура - минимум температуры воздуха на высоте 2 м над землей.
Tmax - Максимальная температура - максимум температуры воздуха на высоте 2 м над землей.
R - Количество осадков - Количество выпавших осадков за период времени, мм. При наведении курсора мыши на число - период времени, за который выпало указанное количество осадков.
R24 - Количество осадков - Количество выпавших осадков за 24 часа, мм.
S - Снежный покров - Высота снежного покрова, см. При наведении курсора мыши на число - состояние снежного покрова и степень покрытия местности в баллах.